+ View the NASA Portal
+ Center for Near-Earth Object Studies
IMPORTANT:
The SSD Announcement email list is now available. Major changes are coming in the near future, including possible hostname and/or URL changes. To be notified of such changes, subscribe to this email list.
Please visit
this page
for more details.
Don't show this message again
JPL Small-Body Database Browser
Search:
[
help
]
413858 (2006 TT104)
Classification:
Inner Main-belt Asteroid
SPK-ID:
2413858
[
Ephemeris
|
Orbit Diagram
|
Orbital Elements
|
Mission Design
|
Physical Parameters
|
Discovery Circumstances
]
[ show orbit diagram ]
Orbital Elements at Epoch 2458600.5 (2019-Apr-27.0) TDB
Reference:
JPL 13
(heliocentric ecliptic J2000)
Element
Value
Uncertainty (1-sigma)
Units
e
.09119641219394331
3.3278e-07
a
1.947079605274159
3.016e-08
au
q
1.769512931017156
6.723e-07
au
i
21.42483667403596
2.1116e-05
deg
node
37.48066081004214
2.1666e-05
deg
peri
328.8178027838216
4.1965e-05
deg
M
242.7422513324862
3.8548e-05
deg
t
p
2458923.731024911770
(2020-Mar-15.23102491)
0.0001089
TDB
period
992.3708265812508
2.72
2.3057e-05
6.313e-08
d
yr
n
.3627676170612668
8.4287e-09
deg/d
Q
2.124646279531161
3.291e-08
au
Orbit Determination Parameters
# obs. used (total)
102
data-arc span
4057 days (11.11 yr)
first obs. used
2005-04-02
last obs. used
2016-05-11
planetary ephem.
DE431
SB-pert. ephem.
SB431-N16
condition code
0
norm. resid. RMS
.65829
source
ORB
producer
Otto Matic
solution date
2017-Apr-09 17:00:04
Additional Information
Earth MOID
= .788255 au
Jupiter MOID
= 3.1836 au
T_jup
= 3.807
[ show covariance matrix ]
[
Ephemeris
|
Orbit Diagram
|
Orbital Elements
|
Mission Design
|
Physical Parameters
|
Discovery Circumstances
]
Physical Parameter Table
Parameter
Symbol
Value
Units
Sigma
Reference
Notes
absolute magnitude
H
17.8
n/a
MPO380195
413858 (2006 TT104)
Discovered 2006-Sep-30 by CSS at Catalina
Reference:
Last Updated:
2014-11-10
[
Ephemeris
|
Orbit Diagram
|
Orbital Elements
|
Mission Design
|
Physical Parameters
|
Discovery Circumstances
]
2019-Dec-14 08:41 UT
(server date/time)
Site Manager:
Ryan S. Park
Webmaster
:
Alan B. Chamberlin